Wind_Speed
40 41 40 40 39 36 33 31 29 28 27 25 28 38 41 41 42 43 44 44 44 45 46 47 48 48 49 48 48 47 47 46 47 47 47 47 47 48 48 48 49 49 49 49
43 42 41 38 38 37 36 33 31 30 28 28 28 31 37 42 43 44 46 47 47 48 49 50 50 50 49 49 48 48 48 49 50 49 50 50 50 49 50 50 50 50 51 52
44 44 41 37 38 38 37 37 35 33 32 31 31 32 34 39 43 46 48 48 48 49 50 50 50 50 49 49 49 50 51 52 53 53 53 53 53 53 53 53 53 52 53 53
45 46 42 40 40 38 38 39 37 37 36 34 35 32 37 40 41 44 45 47 49 50 51 51 50 50 51 52 53 54 55 56 57 57 57 56 56 55 55 54 54 54 53 54
47 46 43 42 41 39 38 39 39 37 38 37 40 36 41 42 45 46 47 48 49 50 51 53 54 56 56 58 59 59 60 61 61 61 60 59 58 58 58 57 55 53 52 51
46 44 44 44 42 41 40 40 40 40 40 37 46 42 40 47 51 51 51 52 53 55 57 59 60 61 61 62 63 63 63 63 63 63 63 62 61 60 59 57 55 52 51 51
44 45 45 44 46 47 47 47 47 44 44 41 44 43 45 49 52 53 55 56 57 58 60 62 63 64 64 64 65 66 66 67 67 64 63 59 56 55 55 54 54 52 51 52
46 46 49 50 51 52 53 53 53 48 49 49 48 48 49 54 56 59 60 61 62 61 61 62 64 65 64 65 66 68 69 67 65 60 57 58 58 58 56 54 53 53 53 54
49 49 51 53 54 55 56 57 59 58 55 53 53 56 56 60 61 63 65 67 69 70 71 71 70 68 68 67 64 65 66 64 63 66 66 66 65 64 63 63 62 61 60 59
55 55 57 58 59 62 64 62 63 66 65 63 61 61 62 62 63 65 69 70 72 73 73 74 74 75 75 73 73 71 71 72 73 73 74 73 72 70 69 69 68 69 69 70
58 58 56 60 62 65 66 68 70 72 72 72 68 69 71 73 75 77 78 79 79 79 80 80 80 80 79 78 78 78 79 79 78 77 78 80 80 79 77 75 74 74 75 75
60 60 61 63 65 67 68 70 73 73 73 74 76 69 77 78 79 77 75 77 77 77 76 78 79 82 84 85 86 85 85 85 85 86 85 85 84 86 86 84 83 83 83 84
65 67 68 68 71 71 74 77 78 79 80 78 81 75 77 80 83 82 82 82 83 84 85 85 87 87 88 89 89 89 91 92 94 94 94 94 94 94 94 94 92 91 91 91
69 69 72 73 75 74 77 78 81 85 86 88 85 87 90 89 91 93 92 92 93 94 96 97 97 96 96 96 97 98 98 99 99 99 98 99 99 100 100 100 99 99 98 96
78 75 78 79 82 84 83 85 89 93 96 98 93 98 99 99 99 101 102 103 102 103 106 107 106 105 105 106 106 107 107 108 107 106 105 105 104 105 103 102 103 104 103 102
86 86 87 88 92 94 91 92 95 98 101 102 103 104 105 105 105 107 107 106 106 104 101 105 107 105 107 108 108 110 111 111 109 108 107 108 107 107 107 108 107 106 106 107
93 96 98 96 94 95 94 94 97 101 102 103 104 104 103 103 102 102 103 103 102 101 100 99 101 103 103 103 104 104 105 105 106 104 102 101 101 101 102 104 105 106 108 110
95 100 99 98 98 96 95 96 98 102 102 101 101 101 102 103 103 104 105 106 107 107 106 106 106 106 106 107 107 108 109 110 108 108 109 108 106 105 105 105 106 107 109 111
95 98 99 98 97 95 95 95 98 99 95 98 97 97 98 94 92 95 96 97 100 102 104 106 108 108 109 110 110 110 111 111 112 112 113 114 114 113 112 111 111 110 111 111
96 97 98 100 102 97 95 96 97 94 87 89 94 98 98 96 96 98 99 99 99 100 100 101 102 103 104 106 108 109 111 112 113 114 115 116 116 115 114 115 114 112 110 110
95 98 100 101 103 95 93 93 93 93 92 94 97 99 101 101 102 102 104 105 105 105 103 103 105 105 106 107 109 111 113 113 113 113 114 114 114 113 112 112 112 111 111 112
101 103 102 100 100 97 93 96 95 94 97 98 93 94 98 102 104 106 105 103 102 102 104 105 103 104 106 107 108 108 108 110 111 112 112 113 114 115 115 115 115 114 113 112
101 104 104 100 95 102 103 101 99 97 93 92 95 98 98 99 101 100 97 95 97 98 95 93 93 93 93 93 94 96 99 101 102 102 102 103 103 103 103 102 101 100 98 98
103 106 106 105 105 108 108 102 96 93 91 91 93 92 91 90 88 86 84 81 81 83 82 82 83 83 84 84 86 87 87 88 90 91 91 91 91 91 91 90 89 90 89 88
113 111 111 108 108 105 103 99 94 91 91 88 85 82 79 79 78 78 77 76 76 76 77 77 77 77 78 78 80 82 81 83 84 84 84 83 83 83 82 82 82 82 80 78
114 112 106 101 99 96 94 90 88 85 83 80 76 76 73 73 73 72 71 71 70 70 72 72 73 73 74 75 76 76 76 78 79 81 81 80 79 79 78 78 77 75 73 70
Wind_Direction
291 291 292 295 298 296 293 290 290 289 288 283 264 253 253 252 253 256 258 260 261 263 265 266 268 269 271 273 273 273 274 274 275 276 276 275 274 274 273 273 273 272 271 271
291 290 291 293 296 296 292 288 286 284 281 279 274 265 256 257 258 258 259 260 261 263 264 266 267 268 270 271 271 272 272 273 275 276 277 277 277 277 277 276 275 273 272 271
291 288 290 290 295 293 291 286 285 281 281 279 275 272 266 261 259 260 260 261 262 264 265 266 267 268 268 267 268 269 271 273 275 276 277 278 279 278 278 278 277 275 273 271
289 287 288 289 291 289 288 285 283 280 279 281 280 272 274 270 267 266 266 265 265 265 266 266 266 265 266 267 269 271 273 275 277 278 279 279 279 280 280 279 278 275 271 268
287 287 285 287 286 288 285 284 283 279 276 279 279 276 278 277 275 272 270 269 268 267 266 266 266 267 269 270 271 272 273 275 277 277 278 278 278 278 278 278 277 275 269 265
283 282 281 284 283 286 285 284 284 282 279 277 274 276 275 274 276 275 275 273 271 270 269 269 269 270 270 271 272 273 274 274 275 275 276 276 276 275 276 276 275 274 269 264
281 282 283 281 281 282 282 282 280 278 277 274 271 272 271 272 273 275 275 274 273 272 271 271 271 271 271 272 272 273 273 273 274 274 273 274 275 275 274 273 273 272 268 263
280 282 281 281 281 280 280 279 278 276 274 272 272 271 271 272 275 275 276 276 276 276 276 275 274 274 275 274 273 272 273 273 272 271 271 273 275 275 274 273 273 271 269 265
278 280 281 282 281 280 279 280 279 278 276 274 274 270 267 270 271 273 273 273 274 275 276 277 277 276 276 275 275 274 273 270 269 272 273 274 275 274 274 272 270 269 268 266
280 280 281 281 280 280 281 280 279 280 279 277 275 273 272 270 269 270 273 274 275 275 275 276 277 276 275 275 274 273 271 271 273 273 274 275 275 276 276 274 272 270 268 266
283 283 281 281 280 279 278 279 278 278 278 276 274 273 273 269 266 267 270 273 274 275 276 275 275 275 274 272 271 271 270 270 270 270 272 274 275 274 273 273 272 270 269 268
282 282 283 283 282 280 281 281 280 280 280 280 279 278 276 275 274 274 273 270 270 270 272 273 274 273 273 273 272 271 270 269 270 270 271 272 272 273 273 273 273 272 270 269
282 283 282 282 283 282 281 281 281 280 279 279 278 279 274 273 275 275 275 275 275 274 273 273 272 271 271 271 272 272 272 270 269 269 269 270 271 271 272 273 273 273 273 272
283 285 282 282 282 283 282 281 279 278 277 275 278 274 275 275 275 275 275 275 276 276 276 275 275 274 272 272 272 273 273 272 272 272 272 273 273 273 274 274 274 273 272 272
284 283 283 282 281 282 280 278 276 276 275 277 275 277 276 276 275 274 274 275 275 276 276 275 275 274 272 273 273 273 273 273 272 271 271 271 272 272 272 272 272 272 271 271
283 282 283 283 283 283 282 280 279 279 279 280 279 278 279 279 278 277 277 277 276 277 276 275 275 275 274 274 273 272 273 272 273 272 272 271 271 271 271 273 272 271 270 270
281 281 281 281 279 278 279 277 277 279 281 280 279 279 280 279 278 278 277 277 276 276 275 273 272 273 273 273 273 273 273 273 273 274 274 273 273 273 273 272 271 270 270 270
280 279 280 279 278 278 279 278 279 278 279 279 278 279 278 278 278 277 277 277 276 276 275 274 274 273 273 273 272 272 272 272 273 273 273 273 273 273 273 273 272 271 271 271
282 284 283 282 280 281 282 282 282 281 281 281 282 282 280 280 279 277 275 274 274 273 272 272 272 273 273 272 272 272 272 271 271 271 272 272 273 273 273 273 272 272 271 272
284 284 284 284 283 284 286 287 286 287 288 288 287 286 284 283 281 279 278 276 274 272 271 271 270 269 269 269 270 270 270 271 271 271 272 273 273 273 273 273 274 274 274 275
288 287 288 289 289 290 291 289 289 290 289 288 286 283 282 280 278 277 276 275 274 274 272 272 271 270 269 269 269 269 269 270 270 271 271 272 273 273 274 275 275 276 276 276
290 290 289 290 292 293 291 291 290 289 290 288 284 281 278 277 276 277 278 277 275 273 274 274 273 272 271 270 270 269 269 269 270 271 271 272 272 273 273 273 273 274 275 275
289 290 291 292 296 294 296 295 294 292 289 287 283 280 278 278 278 278 278 276 276 276 275 275 274 273 272 272 272 271 271 270 271 271 270 270 270 270 271 271 272 272 272 272
294 295 295 296 297 295 297 296 293 290 288 284 281 280 280 280 280 279 279 278 276 276 276 275 274 273 273 272 272 271 271 271 271 270 270 270 271 271 271 271 272 272 272 272
295 294 295 296 294 295 295 293 291 290 286 283 283 282 281 281 281 281 280 279 278 277 277 276 274 273 272 271 270 269 269 269 269 270 270 270 271 271 271 271 271 272 272 271
295 295 295 294 293 293 293 291 289 287 286 286 286 286 285 284 283 282 282 280 280 278 278 277 277 276 275 273 271 270 269 268 268 268 268 268 269 269 269 269 270 271 271 270
Height
10657 10654 10651 10647 10643 10640 10638 10636 10634 10632 10631 10630 10630 10631 10630 10632 10633 10633 10633 10634 10634 10634 10635 10635 10634 10634 10633 10633 10632 10631 10630 10630 10629 10629 10628 10627 10625 10624 10624 10624 10623 10623 10622 10621
10648 10644 10642 10639 10636 10633 10630 10628 10627 10625 10625 10624 10624 10623 10623 10622 10622 10623 10624 10624 10624 10624 10623 10623 10623 10622 10622 10621 10621 10620 10619 10618 10618 10617 10616 10615 10613 10613 10612 10611 10611 10610 10609 10609
10639 10634 10633 10631 10627 10625 10622 10619 10618 10618 10617 10617 10617 10617 10615 10613 10613 10612 10612 10612 10612 10612 10612 10611 10611 10610 10610 10609 10609 10608 10608 10607 10606 10605 10604 10603 10601 10600 10599 10598 10597 10597 10596 10595
10629 10624 10623 10621 10618 10616 10614 10610 10610 10608 10609 10609 10607 10611 10605 10604 10604 10601 10601 10601 10601 10601 10600 10600 10599 10598 10598 10597 10596 10596 10595 10594 10593 10592 10592 10591 10589 10587 10585 10585 10584 10583 10582 10581
10619 10616 10613 10611 10608 10606 10605 10601 10600 10599 10599 10601 10597 10600 10595 10592 10590 10590 10590 10591 10590 10589 10589 10588 10587 10587 10586 10585 10584 10583 10582 10581 10580 10579 10578 10577 10575 10573 10571 10570 10569 10568 10568 10567
10607 10605 10602 10600 10598 10595 10594 10591 10590 10589 10589 10593 10584 10587 10589 10581 10576 10576 10577 10577 10576 10576 10576 10575 10574 10573 10573 10571 10570 10568 10567 10566 10565 10563 10562 10561 10560 10558 10557 10555 10554 10554 10554 10554
10597 10594 10592 10589 10587 10584 10581 10579 10578 10580 10577 10579 10575 10575 10573 10567 10563 10562 10561 10560 10560 10559 10558 10558 10557 10556 10556 10555 10554 10552 10550 10548 10547 10547 10545 10545 10544 10543 10542 10541 10540 10540 10540 10540
10586 10584 10580 10577 10575 10572 10569 10565 10562 10567 10565 10565 10566 10565 10562 10553 10551 10548 10548 10545 10543 10542 10542 10540 10539 10538 10538 10538 10536 10533 10531 10531 10529 10529 10529 10528 10528 10528 10528 10527 10527 10526 10526 10525
10574 10574 10568 10564 10560 10558 10556 10552 10548 10548 10550 10552 10552 10550 10548 10541 10537 10533 10531 10530 10527 10525 10523 10522 10522 10521 10520 10519 10518 10515 10513 10512 10512 10511 10511 10511 10510 10510 10511 10511 10511 10511 10510 10510
10561 10561 10556 10551 10547 10541 10539 10537 10533 10529 10531 10534 10535 10532 10530 10527 10520 10516 10513 10512 10509 10507 10505 10504 10503 10502 10500 10499 10497 10496 10495 10494 10494 10493 10491 10491 10491 10491 10492 10492 10492 10492 10492 10491
10543 10542 10543 10536 10532 10527 10523 10519 10514 10510 10511 10509 10515 10513 10508 10505 10502 10499 10497 10495 10492 10488 10485 10483 10482 10480 10479 10477 10476 10475 10475 10474 10474 10473 10471 10470 10469 10470 10471 10470 10470 10471 10470 10469
10525 10525 10523 10520 10514 10510 10508 10503 10496 10491 10492 10489 10486 10498 10484 10481 10477 10478 10479 10476 10472 10470 10467 10463 10459 10457 10456 10455 10454 10453 10451 10451 10450 10449 10449 10448 10447 10444 10443 10445 10447 10447 10446 10446
10510 10508 10504 10503 10496 10494 10490 10483 10477 10472 10469 10471 10462 10471 10460 10458 10454 10455 10452 10451 10450 10446 10443 10440 10438 10437 10435 10432 10430 10428 10426 10426 10424 10424 10424 10423 10421 10421 10420 10419 10421 10419 10419 10418
10491 10489 10483 10481 10474 10475 10469 10464 10457 10451 10447 10442 10448 10440 10431 10435 10430 10427 10426 10425 10423 10418 10415 10411 10409 10408 10407 10405 10403 10400 10400 10398 10398 10396 10395 10394 10393 10391 10390 10390 10390 10391 10390 10391
10471 10469 10463 10458 10451 10448 10447 10441 10434 10427 10419 10415 10426 10413 10406 10407 10405 10400 10396 10393 10391 10389 10386 10382 10378 10377 10375 10372 10370 10367 10368 10366 10367 10366 10365 10363 10362 10362 10362 10361 10360 10360 10360 10359
10449 10445 10441 10437 10427 10423 10425 10415 10406 10400 10394 10390 10386 10384 10376 10374 10371 10366 10363 10361 10359 10357 10353 10350 10346 10344 10341 10337 10336 10334 10333 10331 10330 10331 10333 10331 10331 10330 10330 10329 10329 10328 10328 10327
10424 10417 10412 10413 10402 10396 10398 10389 10378 10371 10365 10359 10354 10348 10347 10342 10338 10334 10329 10326 10324 10323 10320 10318 10314 10311 10309 10306 10303 10302 10299 10298 10297 10295 10296 10296 10297 10296 10296 10297 10296 10296 10296 10295
10397 10387 10383 10382 10373 10371 10369 10363 10355 10344 10338 10330 10324 10320 10314 10308 10306 10298 10295 10291 10287 10285 10284 10282 10279 10277 10275 10273 10270 10268 10266 10264 10265 10264 10262 10262 10262 10262 10262 10262 10262 10261 10261 10260
10367 10357 10351 10346 10341 10343 10336 10332 10319 10314 10318 10302 10296 10286 10279 10280 10275 10266 10263 10259 10254 10251 10248 10246 10243 10240 10237 10235 10233 10231 10230 10229 10229 10228 10227 10226 10226 10226 10225 10225 10224 10225 10225 10224
10338 10329 10321 10312 10304 10312 10309 10297 10286 10282 10285 10274 10262 10250 10243 10241 10238 10228 10225 10220 10218 10214 10213 10210 10207 10205 10202 10199 10197 10196 10193 10192 10191 10190 10189 10189 10188 10188 10187 10187 10186 10187 10189 10188
10310 10300 10291 10282 10272 10284 10276 10264 10256 10250 10246 10239 10231 10219 10209 10204 10198 10192 10186 10183 10179 10175 10175 10172 10169 10168 10168 10165 10161 10159 10157 10156 10156 10155 10153 10153 10153 10151 10151 10151 10150 10150 10150 10150
10278 10266 10260 10257 10249 10242 10240 10232 10225 10219 10212 10201 10194 10181 10173 10164 10159 10154 10151 10146 10142 10140 10137 10135 10133 10129 10127 10127 10126 10125 10124 10122 10121 10121 10120 10119 10119 10117 10117 10115 10113 10112 10113 10113
10251 10238 10229 10226 10228 10203 10199 10191 10185 10182 10175 10163 10152 10142 10137 10130 10124 10122 10117 10114 10109 10104 10103 10100 10097 10094 10092 10092 10090 10089 10088 10088 10088 10088 10087 10086 10084 10083 10082 10081 10081 10080 10079 10079
10220 10208 10202 10192 10194 10172 10159 10152 10148 10140 10135 10127 10116 10111 10102 10097 10092 10088 10085 10082 10078 10073 10072 10069 10067 10065 10063 10063 10060 10058 10058 10058 10056 10054 10054 10052 10052 10052 10051 10051 10050 10049 10049 10048
10179 10176 10168 10164 10149 10146 10130 10118 10112 10105 10095 10089 10084 10079 10074 10069 10063 10059 10056 10053 10050 10046 10042 10040 10038 10037 10036 10035 10032 10030 10031 10029 10027 10026 10026 10026 10025 10025 10024 10023 10022 10020 10020 10020
10148 10138 10133 10127 10114 10108 10099 10087 10077 10072 10064 10057 10054 10047 10045 10041 10036 10032 10029 10025 10022 10019 10015 10013 10011 10009 10006 10005 10003 10003 10003 10001 10000 9999 9999 9999 9999 9999 9998 9996 9995 9994 9994 9995